Regional Weather Roundup
Issued by NWS Cleveland, OH

Home | Current Version | Previous Version | Text Only | Print | Product List | Glossary Off
Versions: 1 2 3 4 5 6 7 8 9 10 11 12 13 14 15 16 17 18 19 20 21 22 23 24 25 26 27 28 29 30 31 32 33 34 35 36 37 38 39 40 41 42 43 44 45 46 47 48 49 50

332
ASUS41 KCLE 270110
RWRCLE
OHIO REGIONAL WEATHER ROUNDUP
NATIONAL WEATHER SERVICE WILMINGTON, OH
900 PM EDT MON SEP 26 2016

NOTE: "FAIR" INDICATES FEW OR NO CLOUDS BELOW 12,000 FEET WITH NO
SIGNIFICANT WEATHER AND/OR OBSTRUCTIONS TO VISIBILITY.

OHZ001>008-015>018-024>027-034-035-043-044-270200-
   NORTHWEST OHIO

CITY           SKY/WX    TMP DP  RH WIND       PRES   REMARKS
DEFIANCE       FAIR      57  42  57 SW5       29.95S
FINDLAY        FAIR      54  44  69 S9        29.96R
TOLEDO EXPRESS FAIR      52  50  93 SW3       29.94R
TOLEDO EXEC    FAIR      58  45  62 SW5       29.95R
LIMA           FAIR      59  44  57 S9        29.98R
$$

OHZ009>014-019>023-028>033-038-089-270200-
   NORTHEAST OHIO

CITY           SKY/WX    TMP DP  RH WIND       PRES   REMARKS
CLE-HOPKINS    FAIR      59  47  64 S8        29.99R
CLE-LAKEFRONT  FAIR      63  46  54 SW15      29.96R
CUY CO. ARPT   PTCLDY    61  50  67 SW9       29.97R
LORAIN-ELYRIA  FAIR      55  45  68 S5        29.97R
ASHTABULA      FAIR      57  57 100 S7        29.98R
AKRON-CANTON   FAIR      55  51  86 SW6       30.00R
WOOSTER        FAIR      51  48  89 CALM      30.01R
MANSFIELD      FAIR      54  45  71 S5        30.00R
YOUNGSTOWN     MOCLDY    57  56  96 S5        29.99R
$$

OHZ042-051>053-060>062-070>072-077>081-270200-
  SOUTHWEST OHIO

CITY           SKY/WX    TMP DP  RH WIND       PRES   REMARKS
CINC-COVINGTON FAIR      59  51  75 SW3       30.05R
CINC-LUNKEN    FAIR      56  54  93 SW6       30.06R
HAMILTON       FAIR      54  50  86 CALM      30.05R
DAYTON         FAIR      59  43  55 SW9       30.03R
WRIGHT-PAT AFB FAIR      56  48  74 S6        30.02R
DAYTON GENERAL FAIR      61  47  59 SW6       30.03R
WILMINGTON     FAIR      54  50  86 S3        30.04R
$$

OHZ036-037-039>041-045>050-054>059-063>069-073>076-082>088-270200-
  CENTRAL AND SOUTHEAST OHIO

CITY           SKY/WX    TMP DP  RH WIND       PRES   REMARKS
COLUMBUS       FAIR      59  49  69 S6        30.01R
OSU AIRPORT    FAIR      58  48  69 S6        30.01R
BOLTON FIELD   FAIR      53  48  84 SW6       30.03R
RICKENBACK AFB FAIR      57  49  75 S7        30.02R
NEWARK         FAIR      52  51  97 CALM      30.02R FOG
MARION         FAIR      51  45  79 S7        30.00R
LANCASTER      FAIR      54  50  86 S3        30.03R
ZANESVILLE     FAIR      57  56  96 SW5       30.02R
NEW PHILLY     FAIR      58  57  97 CALM      30.02R
$$




USA.gov is the U.S. government's official web portal to all federal, state and local government web resources and services.